Theta_e
308 308 308 308 311 313 312 314 313 315 321 319 322 322 322 322 324 325 326 326 326 325 325 325 324 324 316 306 305 312 327 328 320 308 303 302 301 300 302 300 299 297 298 299 299 298 295
307 307 307 308 310 312 312 313 313 312 320 320 321 320 321 321 323 324 325 326 325 324 324 323 322 321 307 302 313 312 320 320 315 306 301 302 301 301 298 298 299 299 298 298 298 296 295
306 306 306 307 308 310 312 313 313 314 320 317 320 319 320 321 321 323 324 325 324 323 323 322 322 311 304 304 307 308 315 317 314 309 303 304 303 302 301 297 301 300 295 297 298 295 294
305 305 306 305 306 307 311 312 312 312 317 318 315 319 319 320 321 322 324 325 323 323 322 322 319 306 301 309 308 312 314 316 316 312 310 308 306 304 303 301 300 298 297 292 295 294 294
305 304 304 304 305 306 310 311 311 312 314 314 315 318 318 319 320 321 323 323 323 323 323 320 309 305 300 309 303 309 311 312 309 308 307 310 304 298 298 295 292 297 291 292 295 295 293
305 304 304 304 305 305 308 310 311 311 312 312 313 318 318 319 320 321 321 322 322 322 318 314 310 300 299 296 302 308 306 313 306 306 305 301 299 292 290 296 289 289 293 293 294 294 291
306 305 304 304 304 305 308 309 310 311 311 312 312 313 318 318 320 322 320 316 309 306 307 302 301 295 296 299 305 302 305 305 307 304 297 299 292 290 290 294 291 290 291 295 290 297 290
306 306 304 304 305 306 308 308 309 310 310 310 310 311 318 318 320 321 318 309 308 309 295 302 302 300 299 300 296 300 303 298 301 297 298 294 290 295 294 293 292 289 288 287 291 290 289
308 306 304 304 305 307 308 307 306 308 309 309 309 310 315 318 319 317 313 310 313 308 295 296 302 300 297 298 295 297 300 295 297 293 295 294 293 297 295 292 289 287 287 286 288 287 288
307 307 305 303 306 307 306 306 306 306 307 308 308 310 312 317 313 313 309 310 312 306 288 289 294 297 298 297 293 300 300 295 291 291 291 290 295 295 290 291 290 286 290 289 288 286 281
307 307 305 304 305 305 304 304 303 303 306 307 307 308 311 316 311 308 309 312 307 303 279 291 292 300 298 295 294 294 298 295 288 288 289 287 289 290 289 290 292 288 292 290 289 286 281
305 306 304 303 304 304 303 302 301 301 303 306 306 308 309 311 312 312 310 307 302 285 276 286 291 290 291 290 291 293 294 294 293 290 288 288 289 290 290 291 292 292 289 288 285 283 278
304 306 304 303 303 304 302 300 300 300 302 304 306 306 306 311 307 310 308 301 283 279 287 283 285 290 289 286 288 290 290 287 285 281 282 284 285 287 289 287 287 290 286 279 277 275 278
302 305 305 304 303 303 302 300 300 299 301 302 305 305 306 309 312 309 304 291 279 283 281 287 288 289 285 288 286 286 288 285 286 285 282 281 279 286 288 286 284 286 287 279 271 272 278
302 303 305 305 303 302 302 300 299 299 301 303 303 302 303 307 311 308 296 284 282 284 285 285 287 284 282 287 285 285 287 287 289 286 282 280 281 285 286 287 290 283 282 285 279 269 273
301 302 304 305 304 303 302 300 299 300 302 301 296 298 301 309 311 303 292 287 283 288 289 289 282 285 281 284 282 283 285 290 288 288 285 284 279 284 285 287 286 286 289 280 279 270 268
298 301 303 305 305 304 303 301 300 301 301 300 295 293 302 309 308 296 286 287 286 289 292 286 283 282 283 284 283 283 284 286 291 286 286 284 283 281 285 283 283 282 282 282 283 279 274
300 299 301 301 303 303 303 302 300 301 299 296 290 286 300 308 293 290 286 290 291 288 289 288 287 284 285 286 281 283 282 287 293 291 285 286 283 278 280 284 285 284 286 286 281 278 277
300 300 299 301 300 301 304 302 301 301 299 291 286 286 297 302 284 284 289 290 290 287 287 287 285 286 287 285 280 282 283 288 291 290 288 288 282 272 278 283 284 283 284 287 287 281 280
298 300 299 299 300 301 303 302 302 301 299 291 286 284 289 291 293 287 287 288 287 290 288 288 286 288 287 285 286 284 283 287 290 292 295 294 285 281 279 281 284 281 282 282 284 281 282
296 296 298 298 300 299 302 302 302 302 300 291 286 283 284 283 287 288 290 289 287 286 288 289 284 287 285 281 284 282 285 286 288 293 291 291 284 281 282 284 286 285 285 284 282 285 281
296 298 298 299 299 300 300 301 303 302 300 288 284 282 285 281 285 288 289 287 287 287 288 286 285 286 286 283 286 281 286 285 285 287 288 287 278 281 278 284 284 283 286 286 287 286 285
295 296 298 299 300 300 300 300 301 302 297 285 289 288 283 283 284 285 287 289 288 290 288 291 287 287 285 286 291 291 292 291 290 288 287 285 280 276 273 282 283 280 283 285 286 288 287
294 295 297 298 300 300 300 300 300 302 297 288 287 288 282 276 283 284 289 291 289 289 288 288 290 289 290 295 295 293 290 289 289 288 291 285 285 282 275 279 274 283 286 288 287 288 288
293 294 295 296 299 299 300 300 300 301 299 290 290 287 283 275 284 284 286 289 291 291 287 288 287 288 295 292 287 284 283 284 281 285 284 286 285 279 278 273 280 285 283 283 282 285 287
291 293 293 294 297 299 299 299 300 301 301 292 289 291 286 281 280 284 285 289 288 288 285 284 287 289 291 288 286 281 279 276 278 281 285 283 288 285 271 277 275 281 287 288 289 282 290
290 292 292 293 295 298 299 300 300 300 301 295 289 292 287 281 285 284 283 286 289 289 286 286 287 288 287 286 284 280 279 281 278 278 279 276 274 280 271 277 276 283 285 289 280 281 284
290 291 291 291 294 298 298 299 299 300 301 298 291 292 287 283 284 285 285 284 285 287 287 285 287 286 285 285 284 284 273 279 276 280 280 278 275 273 269 268 276 282 283 286 287 284 285
290 290 292 290 293 297 297 298 298 299 300 298 291 292 292 285 284 286 286 286 285 287 287 285 287 286 290 285 284 280 277 275 274 274 282 279 283 278 282 281 284 284 284 286 286 286 286
Wind_Speed
17 18 18 17 17 15 14 23 20 28 23 24 33 30 29 29 27 27 24 25 25 25 22 21 20 19 9 4 6 1 12 14 4 6 7 7 7 5 8 7 5 4 5 5 2 7 5
15 16 17 18 15 16 12 17 16 20 17 10 29 27 29 27 27 27 24 26 26 25 22 21 20 18 5 10 3 2 7 10 6 5 5 5 9 5 5 5 8 6 5 2 4 4 2
13 14 16 14 13 15 16 14 10 25 21 4 35 30 28 26 26 27 27 30 28 26 23 22 19 6 3 9 2 2 8 8 8 5 6 2 1 4 6 5 2 4 1 3 6 4 4
11 12 13 11 12 12 14 5 5 14 7 16 8 19 26 26 26 26 27 31 29 27 24 22 10 4 4 1 2 5 5 6 6 3 4 3 4 6 5 5 5 5 2 6 3 6 3
11 9 11 10 12 12 13 3 4 8 14 7 3 25 21 27 25 28 28 26 27 28 24 20 6 5 3 4 5 3 4 12 10 5 4 2 4 3 3 7 3 2 4 9 7 6 4
12 12 10 10 11 12 12 2 8 9 11 15 9 26 23 27 26 29 28 29 27 27 18 9 3 5 5 7 6 6 2 15 9 9 5 3 3 4 2 9 9 7 11 4 13 5 5
14 12 11 11 12 11 11 4 7 6 10 14 10 3 23 27 26 32 25 17 15 11 12 5 13 3 5 5 5 3 5 9 7 5 9 0 4 16 9 8 3 6 4 15 4 7 5
16 14 12 10 12 10 8 4 8 6 8 9 10 11 23 27 28 35 21 9 13 10 12 5 16 5 3 4 8 6 6 8 11 13 8 3 18 8 7 4 5 4 4 4 5 3 4
17 14 11 10 10 9 5 6 4 6 7 6 8 7 6 27 29 23 20 13 14 13 7 2 6 5 6 6 5 11 8 5 13 11 16 12 3 8 7 3 5 5 4 2 4 1 3
16 13 11 6 3 7 7 7 4 5 5 5 2 7 9 24 23 18 15 16 21 5 6 7 7 4 4 7 4 4 6 9 5 13 11 5 6 20 8 17 9 8 7 3 2 2 5
14 14 13 8 4 7 7 6 4 3 4 4 3 7 11 25 12 18 12 14 7 7 7 13 6 4 7 10 14 6 2 4 9 8 9 7 11 11 17 10 11 4 7 6 4 3 4
11 15 14 11 8 6 4 4 3 3 2 4 2 3 7 5 9 17 17 13 4 4 5 10 8 9 10 2 2 6 6 4 6 7 2 7 3 11 8 8 13 9 7 7 5 3 4
8 15 15 12 9 7 5 3 3 3 2 4 4 3 3 3 14 17 17 7 8 7 6 8 9 13 18 7 4 7 15 8 8 8 9 3 3 2 5 7 4 12 15 3 2 3 14
5 13 16 15 11 8 7 4 2 2 2 4 3 3 2 5 10 20 15 11 7 11 10 5 10 18 12 13 3 4 14 13 9 6 8 11 9 11 5 6 6 12 15 8 9 5 7
6 6 14 16 13 10 8 4 1 2 2 1 1 1 1 7 11 18 17 18 13 15 10 11 15 20 6 13 9 8 19 23 17 13 10 7 8 3 4 5 13 6 11 5 5 2 3
6 7 11 14 15 12 9 6 2 1 0 1 2 1 5 12 12 18 16 18 4 7 14 21 9 16 17 23 8 13 20 20 16 11 2 6 3 1 2 5 1 10 11 4 1 2 5
1 4 5 13 14 14 12 8 3 5 5 3 2 3 1 16 11 12 19 13 6 5 20 10 8 9 11 19 10 17 18 3 20 10 4 6 5 0 6 9 10 4 6 4 5 7 7
11 2 4 2 7 10 13 11 4 2 4 4 2 2 1 12 10 9 12 7 6 7 3 6 6 6 17 20 7 16 16 12 16 15 12 6 6 4 8 2 2 2 8 15 7 13 5
13 10 4 4 1 3 13 12 7 4 5 3 2 2 2 10 6 11 6 4 3 8 10 7 5 5 7 14 5 6 7 6 15 21 23 10 3 4 5 3 3 8 7 12 15 4 13
7 11 11 10 3 1 11 12 10 7 6 3 2 3 1 1 3 8 9 18 7 1 5 6 7 7 11 11 2 13 8 6 13 18 10 14 4 10 14 10 8 3 3 3 10 11 16
4 1 7 6 8 0 7 12 12 8 8 3 1 1 2 3 11 9 12 14 18 7 2 7 3 14 12 6 15 7 7 4 1 8 7 11 18 7 1 6 8 9 9 9 7 15 9
7 9 4 7 10 5 3 5 12 11 6 4 3 3 1 1 2 10 17 13 30 11 12 12 11 13 8 11 17 10 11 7 9 2 9 1 3 5 0 3 5 5 13 13 17 20 15
7 6 8 6 10 5 5 4 5 11 5 3 2 1 1 1 2 4 12 19 29 15 3 11 12 11 11 8 14 9 8 8 11 13 13 9 7 5 7 3 3 4 15 15 12 18 16
7 6 11 3 10 9 9 6 4 10 5 3 2 1 3 2 1 5 11 20 20 28 10 1 10 16 7 17 15 13 11 10 6 4 10 10 11 4 4 3 5 10 7 16 19 18 17
7 7 10 11 7 11 12 8 6 8 8 3 2 3 1 2 2 7 9 17 21 9 3 5 3 4 13 7 7 6 4 3 3 5 5 1 7 3 6 5 8 21 6 7 7 16 15
4 5 5 7 16 16 14 10 9 8 11 3 1 2 1 3 2 5 5 12 12 16 3 3 2 2 4 5 6 6 8 6 5 2 3 4 9 8 4 9 18 4 14 9 5 28 9
9 2 5 8 13 13 13 11 11 9 13 4 1 1 1 3 1 3 4 6 3 8 6 5 6 2 2 4 6 4 5 5 9 13 8 4 3 14 3 9 11 7 6 10 11 4 3
8 7 4 5 15 11 10 9 8 7 13 5 1 0 2 2 1 3 5 4 1 3 11 8 7 1 2 4 5 4 4 7 4 6 9 9 8 6 3 1 20 6 6 22 7 2 2
9 9 5 3 14 12 10 7 7 5 14 8 0 1 1 3 1 0 0 1 3 6 2 1 2 5 6 5 3 5 3 3 6 5 1 4 8 9 14 10 3 6 1 3 3 3 3
Wind_Direction
283 290 297 300 301 317 312 313 309 312 201 198 186 189 192 186 183 180 184 173 153 151 152 150 142 145 145 189 242 222 194 165 138 103 149 142 156 140 168 171 128 187 180 185 284 343 298
275 284 293 300 312 324 314 309 295 311 210 221 187 182 193 182 182 181 173 168 153 148 150 145 143 153 131 185 245 167 141 132 134 115 131 151 178 168 124 165 178 201 175 159 233 252 306
272 285 287 292 310 315 315 309 282 305 192 160 177 176 187 180 180 183 168 167 152 147 150 145 143 140 69 189 26 140 155 152 145 138 125 103 112 133 119 128 152 95 172 217 229 166 257
261 275 289 300 303 300 312 357 336 335 139 162 88 168 182 176 177 175 163 159 153 151 151 142 125 93 198 163 122 97 131 111 131 83 75 150 80 113 132 117 56 130 132 224 187 153 258
252 262 281 296 296 300 305 274 28 31 26 95 143 174 185 176 173 166 157 151 152 146 143 129 90 109 234 92 132 161 128 142 130 103 70 88 66 126 83 112 83 255 206 216 298 205 141
236 262 275 290 303 301 292 167 66 38 55 53 28 170 180 176 170 160 154 147 149 138 127 89 97 134 175 191 145 135 120 148 131 113 77 45 92 133 139 171 204 184 208 216 223 213 193
220 246 264 286 299 290 288 113 79 43 59 54 45 70 179 176 167 152 143 139 149 164 149 175 159 135 127 144 109 108 151 104 113 130 175 19 179 199 174 186 88 157 179 233 250 213 200
221 222 249 277 291 283 274 91 77 62 47 44 41 357 182 179 166 155 154 162 155 127 122 26 141 100 139 161 115 157 144 123 155 177 123 64 225 179 162 124 194 159 180 247 296 302 188
228 219 233 267 285 270 201 111 97 75 64 67 24 337 237 176 163 157 172 148 135 122 110 123 183 131 150 123 128 173 136 114 148 148 176 203 164 187 197 179 197 215 179 155 240 295 249
223 222 216 249 310 131 120 92 75 76 85 58 355 337 322 181 159 161 171 155 151 106 87 161 179 202 125 134 116 153 163 133 152 164 157 210 200 187 173 219 177 214 147 128 46 312 246
228 216 200 199 184 120 98 69 58 50 58 103 104 284 328 197 153 174 141 155 124 73 169 151 159 140 151 158 135 229 184 66 151 152 143 208 172 178 208 197 175 169 146 165 158 102 360
235 198 186 200 196 163 140 137 74 17 327 30 87 242 324 196 168 154 142 129 124 93 193 186 144 150 135 163 109 112 136 62 139 119 83 191 176 167 188 172 183 142 59 32 41 107 245
234 196 185 199 203 184 166 140 34 312 352 340 327 346 290 248 167 143 141 147 110 185 141 181 167 164 161 144 108 152 177 157 154 131 185 89 215 240 152 140 124 162 152 172 213 222 236
237 223 194 193 196 191 186 165 102 354 348 291 283 328 296 240 174 147 144 147 168 170 186 139 133 142 169 135 173 156 155 184 228 142 136 169 206 177 187 185 166 190 183 159 196 221 252
249 242 213 197 193 185 192 157 11 39 246 291 324 200 212 227 222 147 146 174 197 174 143 124 116 153 139 185 139 145 191 198 188 177 156 142 243 34 159 149 153 196 209 184 108 29 49
332 251 221 203 196 185 183 164 77 141 230 234 183 179 210 172 194 154 166 188 154 143 117 139 148 184 173 178 142 183 183 202 194 177 38 190 127 187 118 99 172 170 156 171 136 199 259
67 313 227 203 192 188 175 176 161 193 199 192 190 192 230 166 180 168 186 176 129 160 135 141 155 156 172 180 164 186 190 255 187 157 124 154 114 348 120 202 173 149 171 195 161 159 212
164 299 21 79 185 203 179 175 171 206 134 79 124 210 11 168 181 178 180 175 136 142 136 122 104 95 174 170 153 194 203 195 184 164 188 185 124 157 207 289 91 232 190 198 194 218 228
171 157 347 324 196 191 188 171 164 203 173 125 115 272 329 203 177 179 159 199 146 146 161 151 128 137 140 161 172 187 172 193 180 172 187 168 186 77 8 1 239 195 209 204 210 80 210
143 159 135 291 263 30 180 174 169 170 146 81 117 157 290 287 55 158 175 191 181 83 140 136 128 112 119 169 178 184 178 194 182 195 134 149 121 168 213 233 126 199 205 246 197 219 230
74 49 168 183 284 262 174 181 168 178 164 110 41 67 8 176 210 161 168 187 188 159 162 145 73 163 152 136 189 183 153 100 96 182 152 162 206 161 279 227 187 184 186 188 201 227 195
40 37 15 200 208 241 125 164 177 165 141 81 127 130 204 329 30 195 183 191 190 189 158 199 158 172 157 156 192 157 142 170 169 125 171 326 229 114 195 327 161 188 202 200 211 230 237
44 39 10 219 187 243 207 141 161 171 116 82 48 349 187 59 15 206 197 189 203 176 301 192 140 145 178 191 179 169 160 129 160 168 179 154 130 104 241 135 154 268 209 201 214 216 222
57 20 15 341 179 203 218 185 148 177 140 129 179 126 46 355 294 265 215 197 194 200 165 7 166 165 149 118 86 57 48 63 94 68 179 164 182 113 157 83 203 256 198 210 215 230 223
47 38 18 3 217 208 217 196 178 158 145 97 144 117 196 146 240 267 236 199 183 158 113 140 33 339 147 98 88 89 13 55 341 26 13 136 139 129 160 192 298 274 205 147 179 261 219
7 60 42 7 353 209 201 198 193 166 160 96 83 88 186 108 230 273 245 193 176 168 110 71 46 304 61 103 97 151 174 168 198 144 27 51 192 173 124 216 231 332 194 150 94 268 187
303 140 36 14 322 192 179 181 173 165 170 108 134 202 152 109 314 329 296 186 100 144 146 124 133 76 309 100 142 147 203 159 167 166 160 113 80 197 168 224 268 231 132 122 187 244 251
262 270 105 33 318 180 158 164 160 157 168 130 201 209 174 118 1 358 339 18 18 207 170 155 131 251 80 127 158 171 141 200 105 163 173 151 146 187 89 150 257 152 56 177 224 123 195
249 249 159 121 303 157 141 137 141 157 161 128 231 112 34 90 129 145 284 51 355 315 104 20 129 135 147 129 178 117 116 142 153 198 317 189 184 172 188 209 242 204 21 108 134 155 190